Regional Weather Roundup
Issued by NWS

Home | Current Version | Previous Version | Text Only | Print | Product List | Glossary On
Versions: 1 2 3 4 5 6 7 8 9 10 11 12 13 14 15 16 17 18 19 20 21 22 23 24 25 26 27 28 29 30 31 32 33 34 35 36 37 38 39 40 41 42 43 44 45 46 47 48 49 50
000
ASUS44 KJAN 251310
RWRMS

MISSISSIPPI HOURLY WEATHER ROUNDUP
NATIONAL WEATHER SERVICE JACKSON MS
800 AM CDT WED MAY 25 2016

NOTE: "FAIR: INDICATES FEW OR NO CLOUDS BELOW 12,000 FEET WITH NO
SIGNIFICANT WEATHER AND/OR OBSTRUCTIONS TO VISIBILITY.

MSZ001>002-007>008-010>013-018>021-025>028-034>036-251400-
NORTHWEST MISSISSIPPI

CITY           SKY/WX    TMP DP  RH WIND       PRES   REMARKS
BATESVILLE     FAIR      70  65  84 CALM      30.14R
CLARKSDALE     PTSUNNY   75  72  88 S12G18    30.10F
CLEVELAND      FAIR      73  73  97 S9        30.10F
GREENWOOD      CLOUDY    73  67  81 S9        30.13R
GREENVILLE     CLOUDY    74  69  85 S9        30.11S
OLIVE BRANCH   PTSUNNY   66  66 100 S10       30.12S
OXFORD         FAIR      70  64  83 S8        30.16S
TUNICA         CLOUDY    68  64  88 S9        30.10F
WINONA         FAIR      68  65  91 CALM      30.15R
$$

MSZ003>006-009-014>017-022>024-029>033-037>039-251400-
NORTHEAST MISSISSIPPI

CITY           SKY/WX    TMP DP  RH WIND       PRES   REMARKS
COLUMBUS AFB   CLOUDY    71  63  77 S6        30.16R
CORINTH        FAIR      73  64  73 SW8       30.14S
GOLDN TRIANGLE MOSUNNY   70  61  73 S7        30.17R
STARKVILLE     FAIR      68  63  83 CALM      30.16R
TUPELO         PTSUNNY   75  62  64 S5        30.15R
$$

MSZ040-058-251400-
CENTRAL MISSISSIPPI

CITY           SKY/WX    TMP DP  RH WIND       PRES   REMARKS
JACKSON INTL   CLOUDY    70  67  90 S6        30.15R
JACKSON HAWKNS CLOUDY    71  68  90 CALM      30.16R
MADISON        CLOUDY    70  68  94 S3        30.15R
MERIDIAN KEY   MOSUNNY   64  61  90 CALM      30.19R
MERIDIAN NAS   CLOUDY    70  62  76 CALM      30.19R
VICKSBURG TVR  PTSUNNY   75  70  84 S5        30.14R
VICKSBURG VKS  MOSUNNY   73  72  94 S6        30.14R
$$

MSZ059>079-251400-
SOUTH MISSISSIPPI

CITY           SKY/WX    TMP DP  RH WIND       PRES   REMARKS
BROOKHAVEN     CLOUDY   N/A N/A N/A S6        30.16R HAZE
COLUMBIA       PTSUNNY   70  70 100 SE3       30.18R
HATTIESBURG    CLOUDY    68  64  87 CALM      30.16R
MCCOMB         CLOUDY    71  69  93 S3        30.14R FOG
NATCHEZ        CLOUDY    75  70  83 S6        30.13R
PINE BELT      MOSUNNY   68  64  88 S3        30.17R
$$

MSZ080>082-251400-
COASTAL MISSISSIPPI

CITY           SKY/WX    TMP DP  RH WIND       PRES   REMARKS
BAY ST LOUIS   MOSUNNY   73  66  78 CALM      30.14R
BILOXI         MOSUNNY   78  73  83 S8        30.14R
PASCAGOULA     PTSUNNY   73  69  87 NE3       30.16R
GULFPORT       MOSUNNY   77  71  82 CALM      30.13R
$$



USA.gov is the U.S. government's official web portal to all federal, state and local government web resources and services.